Find Starlink 3173

NORAD ID: 51111 Int'l Des: 2022-005 Owner: SPXS Country: US Constellation: starlink operational
LEOCIRCULAR

リアルタイム位置

3D地球を読み込み中...

Starlink 3173について

説明を読み込み中...

次回通過

Passes for default location (London). Set your location on the main map for personalized predictions.

高度履歴

Loading altitude history...

軌道要素

1 51111U 22005H 26126.43830354 -.00002564 00000-0 -14301-3 0 9996
2 51111 53.2183 29.8769 0001612 89.6325 270.4852 15.08857325237595
Epoch: May 6, 2026 • Age: 13 hours

現在のステータス

高度 542.9 km
速度 7.60 km/s
衛星直下点 42.78°N, 57.56°W
打ち上げ日 Jan 19, 2022
運用期間 4.2 years
タイプ internet

技術仕様

分類 Payload
質量 297.00 kg
乾燥質量 275.00 kg
総質量 297.00 kg
長さ 0.20 m
直径 2.80 m
スパン 9.00 m
形状 Box + pan
製造者 SPXS
バスタイプ Starlink
フェーズステータス In Orbit
所有者/国 SPXS/US

Most Searched